Weather History for Nashua, NH

Change the Weather History Date:

Monday, February 3, 2014

  Actual Average Record
Temperature  
Mean Temperature 27 °F -  
Max Temperature 35 °F 35 °F 60 °F (1991)
Min Temperature 18 °F 12 °F -22 °F (1971)
Degree Days  
Heating Degree Days 38    
Moisture  
Dew Point 24 °F    
Average Humidity 83    
Maximum Humidity 96    
Minimum Humidity 52    
Precipitation  
Precipitation 0.00 in - - ()
Sea Level Pressure  
Sea Level Pressure 30.66 in    
Wind  
Wind Speed 2 mph (North)    
Max Wind Speed 8 mph    
Max Gust Speed -    
Visibility 6 miles    
Events Snow    
Averages and records for this station are not official NWS values.
T = Trace of Precipitation, MM = Missing Value Source: NWS Daily Summary

Daily Weather History Graph

Daily Weather History Graph

Search for Another Location

Airport:

Trip Planner

Search our weather history database for the weather conditions in past years. The results will help you decide how hot, cold, wet, or windy it might be!

Date:

Astronomy

Feb. 03, 2014 Rise Set
Actual Time 6:58 AM EST 5:01 PM EST
Civil Twilight 6:28 AM EST 5:31 PM EST
Nautical Twilight 5:54 AM EST 6:05 PM EST
Astronomical Twilight 5:21 AM EST 6:38 PM EST
Moon 8:51 AM EST (2/3) 9:57 PM EST (2/3)
Length of Visible Light 11h 03m
Length of Day
10h 03m
Waxing Crescent, 19% of the Moon is Illuminated
Feb 3
Waxing Crescent
Feb 6
First Quarter
Feb 14
Full
Feb 22
Last Quarter
Mar 1
New

Hourly Weather History & Observations

Time (EST) Temp. Windchill Dew Point Humidity Pressure Visibility Wind Dir Wind Speed Gust Speed Precip Events Conditions
12:51 AM 34.0 °F - 31.1 °F 89% 30.84 in 10.0 mi Calm Calm - N/A   Clear
1:51 AM 32.0 °F - 30.0 °F 92% 30.85 in 10.0 mi Calm Calm - N/A   Mostly Cloudy
2:51 AM 34.9 °F - 29.1 °F 79% 30.87 in 10.0 mi Calm Calm - N/A   Overcast
3:27 AM 35.6 °F 29.9 °F 26.6 °F 70% 30.11 in 10.0 mi North 6.9 mph - N/A   Overcast
3:51 AM 34.9 °F 29.0 °F 27.1 °F 73% 30.88 in 10.0 mi North 6.9 mph - N/A   Overcast
4:35 AM 33.8 °F 27.7 °F 24.8 °F 70% 30.13 in 10.0 mi North 6.9 mph - N/A   Overcast
4:51 AM 34.0 °F 28.0 °F 24.1 °F 67% 30.89 in 10.0 mi North 6.9 mph - N/A   Overcast
5:51 AM 32.0 °F 24.8 °F 21.0 °F 64% 30.93 in 10.0 mi North 8.1 mph - N/A   Overcast
6:51 AM 32.0 °F 25.6 °F 18.1 °F 57% 30.95 in 10.0 mi North 6.9 mph - N/A   Scattered Clouds
7:51 AM 32.0 °F 27.5 °F 16.2 °F 52% 30.94 in 10.0 mi North 4.6 mph - N/A   Clear
8:51 AM 32.0 °F - 17.1 °F 54% 30.96 in 10.0 mi Calm Calm - N/A   Clear
9:51 AM 32.9 °F - 17.1 °F 52% 30.96 in 10.0 mi Calm Calm - N/A   Partly Cloudy
10:51 AM 32.9 °F - 17.1 °F 52% 30.99 in 10.0 mi Calm Calm - N/A   Overcast
11:51 AM 31.1 °F - 23.0 °F 72% 30.97 in 3.0 mi Calm Calm - 0.00 in Snow Light Snow
12:24 PM 30.2 °F - 24.8 °F 80% 30.20 in 2.0 mi Calm Calm - 0.00 in Snow Light Snow
12:31 PM 28.4 °F - 26.6 °F 93% 30.19 in 1.5 mi Calm Calm - 0.00 in Snow Light Snow
12:39 PM 28.4 °F - 26.6 °F 93% 30.19 in 1.2 mi Calm Calm - 0.00 in Snow Light Snow
12:51 PM 29.1 °F - 27.1 °F 92% 30.95 in 1.0 mi Calm Calm - 0.00 in Snow Light Snow
12:54 PM 28.4 °F - 26.6 °F 93% 30.19 in 1.0 mi Calm Calm - 0.00 in Snow Light Snow
1:05 PM 28.4 °F - 26.6 °F 93% 30.19 in 1.0 mi Calm Calm - 0.00 in Snow Light Snow
1:20 PM 28.4 °F - 26.6 °F 93% 30.19 in 1.0 mi Calm Calm - 0.00 in Snow Light Snow
1:27 PM 28.4 °F - 26.6 °F 93% 30.18 in 1.2 mi Calm Calm - 0.00 in Snow Light Snow
1:40 PM 28.4 °F - 26.6 °F 93% 30.18 in 1.5 mi Calm Calm - 0.00 in Snow Light Snow
1:51 PM 29.1 °F - 27.1 °F 92% 30.95 in 1.5 mi Calm Calm - 0.00 in Snow Light Snow
1:55 PM 28.4 °F - 26.6 °F 93% 30.19 in 1.5 mi Calm Calm - 0.00 in Snow Light Snow
2:06 PM 28.4 °F - 26.6 °F 93% 30.18 in 1.2 mi Calm Calm - 0.00 in Snow Light Snow
2:15 PM 28.4 °F - 26.6 °F 93% 30.18 in 1.0 mi Calm Calm - 0.00 in Snow Light Snow
2:25 PM 28.4 °F - 26.6 °F 93% 30.19 in 0.8 mi Calm Calm - 0.00 in Snow Light Snow
2:51 PM 28.0 °F 24.2 °F 25.2 °F 89% 30.95 in 1.5 mi Variable 3.5 mph - 0.00 in Snow Light Snow
3:51 PM 28.0 °F - 23.0 °F 81% 30.97 in 1.5 mi Calm Calm - 0.00 in Snow Light Snow
4:51 PM 28.0 °F - 25.2 °F 89% 30.97 in 4.0 mi Calm Calm - 0.00 in   Mostly Cloudy
5:51 PM 28.0 °F - 24.1 °F 85% 30.98 in 10.0 mi Calm Calm - N/A   Mostly Cloudy
6:51 PM 27.1 °F - 25.2 °F 92% 30.99 in 10.0 mi Calm Calm - N/A   Mostly Cloudy
7:08 PM 26.6 °F - 24.8 °F 93% 30.22 in 10.0 mi Calm Calm - N/A   Scattered Clouds
7:51 PM 25.2 °F - 24.1 °F 96% 31.01 in 10.0 mi Calm Calm - N/A   Scattered Clouds
8:51 PM 22.1 °F - 21.0 °F 96% 31.03 in 5.0 mi Calm Calm - N/A   Clear
9:51 PM 20.1 °F - 19.0 °F 96% 31.05 in 5.0 mi Calm Calm - N/A   Clear
10:51 PM 19.0 °F - 18.1 °F 96% 31.06 in 10.0 mi Calm Calm - N/A   Clear
11:51 PM 18.1 °F - 17.1 °F 96% 31.07 in 10.0 mi Calm Calm - N/A   Clear